This is the latest recevied weather packets stored in our database for station/object K1RTA-1. If no packets are shown the sender has not sent any weather packets the latest 10 day(s).
| Time | Temp. | Humidity | Pressure | Rain* | Wind** | Luminosity | Snow |
|---|---|---|---|---|---|---|---|
| 1777942286 | 12.78° C | 70% | 1012.7 hPa | 0 mm | - | - | - |
| 1777941385 | 13.33° C | 68% | 1012.5 hPa | 0 mm | - | - | - |
| 1777940484 | 13.33° C | 68% | 1012.2 hPa | 0 mm | - | - | - |
| 1777939585 | 13.33° C | 67% | 1012 hPa | 0 mm | - | - | - |
| 1777938685 | 13.33° C | 67% | 1011.9 hPa | 0 mm | - | - | - |
| 1777937785 | 13.89° C | 67% | 1011.7 hPa | 0 mm | - | - | - |
| 1777936886 | 13.89° C | 66% | 1011.6 hPa | 0 mm | - | - | - |
| 1777935985 | 14.44° C | 66% | 1011.4 hPa | 0 mm | - | - | - |
| 1777935085 | 14.44° C | 65% | 1011.4 hPa | 0 mm | - | - | - |
| 1777934186 | 14.44° C | 65% | 1011.2 hPa | 0 mm | - | - | - |
| 1777933286 | 15° C | 64% | 1011.2 hPa | 0 mm | - | - | - |
| 1777932385 | 15° C | 64% | 1011.3 hPa | 0 mm | - | - | - |
| 1777931486 | 15.56° C | 63% | 1011.3 hPa | 0 mm | - | - | - |
| 1777930585 | 16.11° C | 61% | 1011.4 hPa | 0 mm | - | - | - |
| 1777929686 | 16.11° C | 59% | 1011.4 hPa | 0 mm | - | - | - |
| 1777928785 | 17.22° C | 56% | 1011.4 hPa | 0 mm | - | - | - |
| 1777927886 | 17.22° C | 53% | 1011.3 hPa | 0 mm | - | - | - |
| 1777926985 | 17.78° C | 50% | 1011.1 hPa | 0 mm | - | - | - |
| 1777926085 | 17.78° C | 51% | 1010.9 hPa | 0 mm | - | - | - |
| 1777925185 | 18.33° C | 50% | 1011 hPa | 0 mm | - | - | - |
| 1777924286 | 18.33° C | 51% | 1011.1 hPa | 0 mm | - | - | - |
| 1777923385 | 18.33° C | 55% | 1010.8 hPa | 0 mm | - | - | - |
| 1777922487 | 18.89° C | 52% | 1010.9 hPa | 0 mm | - | - | - |
| 1777921587 | 18.33° C | 54% | 1011.2 hPa | 0 mm | - | - | - |
| 1777920686 | 18.89° C | 56% | 1011.1 hPa | 0 mm | - | - | - |
* Rain latest hour (hover to see other rain measurements)
** Current wind speed in m/s (hover to see current wind gust speed)